Location: Stoke Bliss
(52.2667°N, 2.5167°W)
Time: 01:18:41
(UTC+00:00)

Okean 3 - Pass Details

Date: 03 March 2021
Orbit: 577 x 600 km, 82.5° (Epoch: 11 April)

Event Time Altitude Azimuth Distance (km) Brightness Sun altitude
Rises 20:11:31 0° 347° (NNW) 2,832 7.4 -21.7°
Reaches altitude 10° 20:13:44 10° 345° (NNW) 1,930 6.5 -22.0°
Maximum altitude 20:17:57 67° 263° (W) 646 3.7 -22.6°
Enters shadow 20:19:38 35° 191° (SSW) 968 4.4 -22.8°
